Regional Weather Roundup
Issued by NWS

Home | Current Version | Previous Version | Graphics & Text | Print | Product List | Glossary On
Versions: 1 2 3 4 5 6 7 8 9 10 11 12 13 14 15 16 17 18 19 20 21 22 23 24 25 26 27 28 29 30 31 32 33 34 35 36 37 38 39 40 41 42 43 44 45 46 47 48 49 50
281
ASUS43 KLOT 070508
RWRIL

ILLINOIS REGIONAL WEATHER ROUNDUP
NATIONAL WEATHER SERVICE CHICAGO/ROMEOVILLE IL
1100 PM CST SAT FEB 06 2016

NOTE: "FAIR" INDICATES FEW OR NO CLOUDS BELOW 12,000 FEET WITH NO
SIGNIFICANT WEATHER AND/OR OBSTRUCTIONS TO VISIBILITY.

* THESE STATIONS ARE NOT UNDER NWS QUALITY CONTROL. THEY ALSO MAY NOT
  REPORT WEATHER SUCH AS PRECIPITATION OR FOG.

ILZ001-002-007-009-015-016-024-070600-
NORTHWEST ILLINOIS

CITY           SKY/WX    TMP DP  RH WIND       PRES   REMARKS
MOLINE         PTCLDY    37  29  72 SW7       30.04F WCI  32
STERLING*      PTCLDY    34  27  75 SW5       30.02F WCI  30
SAVANNA*       CLOUDY    31  30  94 S3        30.03F FOG
$$

ILZ003-004-008-010-011-017-018-070600-
NORTH CENTRAL ILLINOIS

CITY           SKY/WX    TMP DP  RH WIND       PRES   REMARKS
ROCKFORD       CLOUDY    31  28  89 S6        30.05F WCI  25
FREEPORT*      CLOUDY    32  30  91 S12       30.04F WCI  23
ROCHELLE*      MOCLDY    32  30  92 S7        30.05F WCI  26
DE KALB*       PTCLDY    31  29  92 S8        30.04F WCI  24
PERU*          MOCLDY   -15 -20  78 SW8       30.07F WCI -32
$$

ILZ005-006-012>014-019>023-070600-
NORTHEAST ILLINOIS

CITY           SKY/WX    TMP DP  RH WIND       PRES   REMARKS
CHICAGO-OHARE  PTCLDY    32  28  85 S6        30.05F WCI  26
CHICAGO-MIDWAY PTCLDY    34  27  75 S5        30.07F WCI  30
AURORA         PTCLDY    32  28  85 S6        30.05F WCI  26
LANSING*       CLEAR     32  29  88 S7        30.08F WCI  26
JOLIET*        PTCLDY    28  27  95 CALM      30.07F FOG
WAUKEGAN       PTCLDY    30  28  92 SW7       30.03F WCI  23
DUPAGE AIRPORT PTCLDY    30  25  81 S6        30.04F WCI  24
KANKAKEE*      CLEAR     31  28  90 S6        30.10F WCI  25
WHEELING       PTCLDY    32  28  85 S6        30.06F WCI  26
MORRIS*          N/A     31  28  88 S3        30.05F
ROMEOVILLE*    PTCLDY    31  27  86 S7        30.07F WCI  24
NORTHERLY ISL    N/A     37  29  73 SW3         N/A
$$

LMZ740>746-070600-
SOUTHERN LAKE MICHIGAN

STATION/POSITION SKY/WX   TEMP    WIND        PRES    VSBY  WAVE
                          AIR SEA DIR/SP/G                  HT/PER
                          (F)     (DEG/KT/KT) (MB)    (MI)  (FT/S)
HARRISON CRIB              39     190/ 13/ 14   N/A
BURNHAM HARBOR             37     220/  4/  8   N/A
CALUMET HARBOR             35     180/  4/  6 1018.1F
BURNS HARBOR               35     180/ 10/ 11 1020.0F
MICHIGAN CITY              37     160/ 14/ 17   N/A
$$

ILZ025>027-034>036-040-047-049-050-058-095>099-070600-
WEST-CENTRAL ILLINOIS

CITY           SKY/WX    TMP DP  RH WIND       PRES   REMARKS
QUINCY         PTCLDY    36  27  69 SW8       30.09F WCI  30
GALESBURG*     CLOUDY    34  30  84 S7        30.06F WCI  28
MACOMB*        PTCLDY    36  30  78 SW8       30.10F WCI  30
JACKSONVILLE*  CLEAR     38  29  70 S5        30.12F WCI  35
PITTSFIELD*    CLEAR     35  29  79 SW5       30.12F WCI  31
$$

ILZ028>032-037-038-041>044-048-051>054-059>061-070600-
CENTRAL ILLINOIS

CITY           SKY/WX    TMP DP  RH WIND       PRES   REMARKS
PONTIAC        CLEAR     35  32  88 SW3       30.10F
BLOOMINGTON    CLEAR     31  30  96 SW7       30.11F WCI  24
DECATUR        CLEAR     36  28  73 SW7       30.13F WCI  30
PEORIA         CLEAR     32  24  72 S6        30.09F WCI  26
LACON*         PTCLDY    30  26  82 SW3       30.08S
LINCOLN*       CLEAR     32  30  92 CALM      30.12F
SPRINGFIELD    CLEAR     37  29  72 S6        30.13F WCI  32
TAYLORVILLE    CLEAR     34  30  86 S6        30.14S WCI  29
$$

ILZ033-039-045-046-055>057-062-063-070600-
EAST-CENTRAL ILLINOIS

CITY           SKY/WX    TMP DP  RH WIND       PRES   REMARKS
CHAMPAIGN      CLEAR     34  28  79 S9        30.13F WCI  27
RANTOUL*       CLEAR     37  32  82 S7        30.12F WCI  31
MATTOON        CLEAR     40  24  53 S9        30.14F
PARIS*         CLEAR     37  28  69 S10       30.15F WCI  30
$$

ILZ079-100>102-070600-
SOUTHWEST ILLINOIS

CITY           SKY/WX    TMP DP  RH WIND       PRES   REMARKS
ALTON          CLEAR     41  28  59 SW8       30.16S
BELLEVILLE     CLEAR     39  23  53 S6        30.17S WCI  35
CAHOKIA*       CLEAR     45  23  42 SW7       30.17F
SPARTA*        CLEAR     41  21  45 S7        30.21S
$$

ILZ064>066-069>071-074>076-080>082-084>086-088>090-092>094-070600-
SOUTH-CENTRAL ILLINOIS

CITY           SKY/WX    TMP DP  RH WIND       PRES   REMARKS
CARBONDALE     CLEAR     37  23  56 S9        30.23S WCI  30
CAIRO*         CLEAR     40  27  59 SW6       30.27R
EFFINGHAM*     CLEAR     41  26  54 S8        30.18F
MARION         CLEAR     36  23  60 SW7       30.24S WCI  30
MT. VERNON     CLEAR     36  23  60 SW6       30.21S WCI  31
CENTRALIA*     CLEAR     41  27  56 S12       30.18F
SALEM*         CLEAR     42  24  49 S12       30.18S
METROPOLIS*    CLEAR     38  26  60 CALM      30.27S
$$

ILZ067-068-072-073-078-083-087-091-070600-
SOUTHEAST ILLINOIS

CITY           SKY/WX    TMP DP  RH WIND       PRES   REMARKS
LAWRENCEVILLE  CLEAR     32  25  75 S9        30.20F WCI  24
FLORA*         CLEAR     40  26  57 SW10      30.20S
FAIRFIELD*     CLEAR     37  27  66 S3        30.20F
HARRISBURG*    CLEAR     38  26  60 SW6       30.24S WCI  34
ROBINSON*      CLEAR     36  25  63 S8        30.20S WCI  30
CARMI*         CLEAR     42  25  50 SW10      30.22S
$$

ABBREVIATIONS USED IN REMARKS
   TC - TEMPERATURE IN CELSIUS
  WCI - WIND CHILL INDEX
   HX - HEAT INDEX
  VSB - VISIBILITY
$$





USA.gov is the U.S. government's official web portal to all federal, state and local government web resources and services.